| time (UTC) | temp F | wind direction | speed MPH | gust MPH | rain 1hr in | rain 24hr in | rain mn in | humidity % | barometer mb |
| 20260509000012 | 64 | 0 | 0.0 | 0.0 | 0.00 | 0.00 | 0.00 | 53 | 1008.8 |
| 20260508235511 | 64 | 0 | 0.0 | 0.0 | 0.00 | 0.00 | 0.00 | 52 | 1008.8 |
| 20260508235011 | 64 | 0 | 0.0 | 0.0 | 0.00 | 0.00 | 0.00 | 52 | 1008.8 |
| 20260508234512 | 65 | 0 | 0.0 | 0.0 | 0.00 | 0.00 | 0.00 | 51 | 1008.8 |
| 20260508234044 | 65 | 0 | 0.0 | 0.0 | 0.00 | 0.00 | 0.00 | 51 | 1008.8 |
| 20260508234011 | 65 | 0 | 0.0 | 0.0 | 0.00 | 0.00 | 0.00 | 51 | 1008.8 |
| 20260508233512 | 65 | 0 | 0.0 | 0.0 | 0.00 | 0.00 | 0.00 | 50 | 1008.6 |
| 20260508233012 | 65 | 0 | 0.0 | 0.0 | 0.00 | 0.00 | 0.00 | 50 | 1008.6 |
| 20260508232511 | 65 | 0 | 0.0 | 0.0 | 0.00 | 0.00 | 0.00 | 50 | 1008.6 |
| 20260508232019 | 65 | 0 | 0.0 | 0.0 | 0.00 | 0.00 | 0.00 | 49 | 1008.9 |
| 20260508231556 | 65 | 0 | 0.0 | 0.0 | 0.00 | 0.00 | 0.00 | 50 | 1008.9 |
| 20260508231512 | 65 | 0 | 0.0 | 0.0 | 0.00 | 0.00 | 0.00 | 50 | 1008.9 |
| 20260508230511 | 66 | 0 | 0.0 | 0.0 | 0.00 | 0.00 | 0.00 | 47 | 1008.9 |
| 20260508230011 | 66 | 0 | 0.0 | 0.0 | 0.00 | 0.00 | 0.00 | 48 | 1008.9 |
| 20260508225511 | 66 | 0 | 0.0 | 0.0 | 0.00 | 0.00 | 0.00 | 49 | 1008.9 |
| 20260508225011 | 66 | 0 | 0.0 | 0.0 | 0.00 | 0.00 | 0.00 | 49 | 1008.9 |
| 20260508224511 | 66 | 0 | 0.0 | 0.0 | 0.00 | 0.00 | 0.00 | 49 | 1008.9 |
| 20260508224011 | 67 | 0 | 0.0 | 0.0 | 0.00 | 0.00 | 0.00 | 47 | 1008.9 |
| 20260508223511 | 67 | 0 | 0.0 | 0.0 | 0.00 | 0.00 | 0.00 | 46 | 1008.9 |
| 20260508223011 | 67 | 0 | 0.0 | 0.0 | 0.00 | 0.00 | 0.00 | 46 | 1008.9 |
| 20260508222511 | 67 | 0 | 0.0 | 0.0 | 0.00 | 0.00 | 0.00 | 44 | 1008.9 |
| 20260508222011 | 67 | 0 | 0.0 | 0.0 | 0.00 | 0.00 | 0.00 | 47 | 1008.9 |
| 20260508221511 | 66 | 0 | 0.0 | 0.0 | 0.00 | 0.00 | 0.00 | 44 | 1008.9 |
| 20260508221011 | 66 | 0 | 0.0 | 0.0 | 0.00 | 0.00 | 0.00 | 46 | 1008.9 |
| 20260508220511 | 66 | 0 | 0.0 | 0.0 | 0.00 | 0.00 | 0.00 | 47 | 1008.8 |
| 20260508220011 | 67 | 0 | 0.0 | 0.0 | 0.00 | 0.01 | 0.00 | 50 | 1008.8 |
| 20260508215511 | 67 | 0 | 0.0 | 0.0 | 0.00 | 0.01 | 0.00 | 52 | 1008.8 |
| 20260508215011 | 67 | 0 | 0.0 | 0.0 | 0.00 | 0.01 | 0.00 | 45 | 1008.8 |
| 20260508214516 | 67 | 0 | 0.0 | 0.0 | 0.00 | 0.03 | 0.00 | 41 | 1008.8 |
| 20260508214011 | 67 | 0 | 0.0 | 0.0 | 0.00 | 0.04 | 0.00 | 43 | 1008.8 |
| 20260508213510 | 67 | 0 | 0.0 | 0.0 | 0.00 | 0.04 | 0.00 | 41 | 1009.0 |
| 20260508213011 | 67 | 0 | 0.0 | 0.0 | 0.00 | 0.04 | 0.00 | 39 | 1009.0 |
| 20260508212511 | 67 | 0 | 0.0 | 0.0 | 0.00 | 0.04 | 0.00 | 40 | 1009.0 |
| 20260508212010 | 67 | 0 | 0.0 | 0.0 | 0.00 | 0.04 | 0.00 | 43 | 1009.1 |
| 20260508211511 | 68 | 0 | 0.0 | 0.0 | 0.00 | 0.04 | 0.00 | 45 | 1009.1 |
| 20260508211011 | 68 | 0 | 0.0 | 0.0 | 0.00 | 0.04 | 0.00 | 55 | 1009.1 |
| 20260508210512 | 68 | 0 | 0.0 | 0.0 | 0.00 | 0.04 | 0.00 | 52 | 1009.0 |
| 20260508210013 | 68 | 0 | 0.0 | 0.0 | 0.00 | 0.04 | 0.00 | 45 | 1009.0 |
| 20260508205511 | 68 | 0 | 0.0 | 0.0 | 0.00 | 0.04 | 0.00 | 48 | 1009.0 |
| 20260508205010 | 68 | 0 | 0.0 | 0.0 | 0.00 | 0.04 | 0.00 | 44 | 1009.0 |
| 20260508204511 | 68 | 0 | 0.0 | 0.0 | 0.00 | 0.04 | 0.00 | 41 | 1009.0 |
| 20260508204011 | 68 | 0 | 0.0 | 0.0 | 0.00 | 0.04 | 0.00 | 42 | 1009.0 |
| 20260508203511 | 68 | 0 | 0.0 | 0.0 | 0.00 | 0.05 | 0.00 | 41 | 1009.5 |
| 20260508203014 | 68 | 0 | 0.0 | 0.0 | 0.00 | 0.07 | 0.00 | 46 | 1009.5 |
| 20260508202511 | 68 | 0 | 0.0 | 0.0 | 0.00 | 0.10 | 0.00 | 47 | 1009.5 |
| 20260508202011 | 68 | 0 | 0.0 | 0.0 | 0.00 | 0.18 | 0.00 | 50 | 1009.5 |
| 20260508201520 | 68 | 0 | 0.0 | 0.0 | 0.00 | 0.18 | 0.00 | 39 | 1009.5 |
| 20260508201011 | 68 | 0 | 0.0 | 0.0 | 0.00 | 0.18 | 0.00 | 36 | 1009.5 |
| 20260508200511 | 68 | 0 | 0.0 | 0.0 | 0.00 | 0.18 | 0.00 | 38 | 1010.0 |
| 20260508200011 | 68 | 0 | 0.0 | 0.0 | 0.00 | 0.18 | 0.00 | 41 | 1010.0 |
| 20260508195513 | 68 | 0 | 0.0 | 0.0 | 0.00 | 0.18 | 0.00 | 36 | 1010.0 |
| 20260508195011 | 68 | 0 | 0.0 | 0.0 | 0.00 | 0.18 | 0.00 | 38 | 1010.1 |
| 20260508194511 | 68 | 0 | 0.0 | 0.0 | 0.00 | 0.18 | 0.00 | 44 | 1010.1 |
| 20260508194011 | 67 | 0 | 0.0 | 1.0 | 0.00 | 0.18 | 0.00 | 39 | 1010.1 |
| 20260508193510 | 67 | 0 | 0.0 | 1.0 | 0.00 | 0.18 | 0.00 | 36 | 1010.2 |
| 20260508193011 | 68 | 0 | 0.0 | 1.0 | 0.00 | 0.18 | 0.00 | 36 | 1010.2 |
| 20260508192511 | 68 | 0 | 0.0 | 0.0 | 0.00 | 0.18 | 0.00 | 40 | 1010.2 |
| 20260508192010 | 68 | 0 | 0.0 | 0.0 | 0.00 | 0.18 | 0.00 | 38 | 1010.3 |
| 20260508191511 | 68 | 0 | 0.0 | 0.0 | 0.00 | 0.18 | 0.00 | 38 | 1010.3 |
| 20260508190510 | 68 | 0 | 0.0 | 0.0 | 0.00 | 0.18 | 0.00 | 37 | 1010.7 |
| 20260508190010 | 68 | 0 | 0.0 | 0.0 | 0.00 | 0.18 | 0.00 | 40 | 1010.7 |
| 20260508185511 | 68 | 0 | 0.0 | 0.0 | 0.00 | 0.18 | 0.00 | 41 | 1010.7 |
| 20260508185010 | 68 | 0 | 0.0 | 0.0 | 0.00 | 0.18 | 0.00 | 46 | 1010.6 |
| 20260508184510 | 68 | 0 | 0.0 | 0.0 | 0.00 | 0.18 | 0.00 | 47 | 1010.6 |
| 20260508183538 | 68 | 0 | 0.0 | 0.0 | 0.00 | 0.18 | 0.00 | 38 | 1010.8 |
| 20260508183038 | 68 | 0 | 0.0 | 0.0 | 0.00 | 0.18 | 0.00 | 41 | 1010.8 |
| 20260508182537 | 68 | 0 | 0.0 | 0.0 | 0.00 | 0.18 | 0.00 | 45 | 1010.8 |
| 20260508182039 | 68 | 0 | 0.0 | 0.0 | 0.00 | 0.18 | 0.00 | 35 | 1011.1 |
| 20260508181538 | 68 | 0 | 0.0 | 0.0 | 0.00 | 0.18 | 0.00 | 38 | 1011.1 |
| 20260508181037 | 67 | 0 | 0.0 | 0.0 | 0.00 | 0.18 | 0.00 | 39 | 1011.1 |
| 20260508180538 | 67 | 0 | 0.0 | 0.0 | 0.00 | 0.18 | 0.00 | 43 | 1011.2 |
| 20260508180038 | 67 | 0 | 0.0 | 0.0 | 0.00 | 0.18 | 0.00 | 43 | 1011.2 |
| 20260508174806 | 67 | 0 | 0.0 | 1.0 | 0.00 | 0.18 | 0.00 | 38 | 1011.4 |
| 20260508174301 | 67 | 0 | 0.0 | 0.0 | 0.00 | 0.18 | 0.00 | 40 | 1011.4 |
| 20260508173801 | 66 | 0 | 0.0 | 0.0 | 0.00 | 0.18 | 0.00 | 42 | 1011.7 |
| 20260508173306 | 66 | 0 | 0.0 | 0.0 | 0.00 | 0.18 | 0.00 | 43 | 1011.7 |
| 20260508172801 | 66 | 0 | 0.0 | 0.0 | 0.00 | 0.18 | 0.00 | 43 | 1011.7 |
| 20260508172301 | 66 | 0 | 0.0 | 0.0 | 0.00 | 0.18 | 0.00 | 42 | 1011.8 |
| 20260508171802 | 66 | 0 | 0.0 | 0.0 | 0.00 | 0.18 | 0.00 | 40 | 1011.8 |
| 20260508171301 | 66 | 0 | 0.0 | 0.0 | 0.00 | 0.18 | 0.00 | 42 | 1011.8 |
| 20260508170801 | 66 | 0 | 0.0 | 0.0 | 0.00 | 0.18 | 0.00 | 44 | 1012.0 |
| 20260508170305 | 66 | 0 | 0.0 | 0.0 | 0.00 | 0.18 | 0.00 | 44 | 1012.0 |
| 20260508165801 | 66 | 0 | 0.0 | 0.0 | 0.00 | 0.18 | 0.00 | 45 | 1012.0 |
| 20260508165306 | 66 | 0 | 0.0 | 0.0 | 0.00 | 0.18 | 0.00 | 47 | 1012.1 |
| 20260508164801 | 66 | 0 | 0.0 | 0.0 | 0.00 | 0.18 | 0.00 | 46 | 1012.1 |
| 20260508164302 | 66 | 0 | 0.0 | 0.0 | 0.00 | 0.18 | 0.00 | 50 | 1012.1 |
| 20260508163801 | 66 | 0 | 0.0 | 0.0 | 0.00 | 0.18 | 0.00 | 46 | 1012.3 |
| 20260508163302 | 66 | 0 | 0.0 | 0.0 | 0.00 | 0.18 | 0.00 | 50 | 1012.3 |
| 20260508162805 | 66 | 0 | 0.0 | 0.0 | 0.00 | 0.18 | 0.00 | 46 | 1012.3 |
| 20260508162301 | 66 | 0 | 0.0 | 0.0 | 0.00 | 0.18 | 0.00 | 43 | 1012.7 |
| 20260508161813 | 66 | 0 | 0.0 | 0.0 | 0.00 | 0.18 | 0.00 | 40 | 1012.7 |
| 20260508161301 | 66 | 0 | 0.0 | 0.0 | 0.00 | 0.18 | 0.00 | 45 | 1012.7 |
| 20260508160801 | 65 | 0 | 0.0 | 0.0 | 0.00 | 0.18 | 0.00 | 42 | 1012.8 |
| 20260508160305 | 65 | 0 | 0.0 | 0.0 | 0.00 | 0.18 | 0.00 | 44 | 1012.8 |
| 20260508155801 | 65 | 0 | 0.0 | 0.0 | 0.00 | 0.18 | 0.00 | 48 | 1012.8 |
| 20260508155305 | 64 | 0 | 0.0 | 0.0 | 0.00 | 0.18 | 0.00 | 47 | 1012.8 |
| 20260508154806 | 64 | 0 | 0.0 | 0.0 | 0.00 | 0.18 | 0.00 | 47 | 1012.8 |
| 20260508154307 | 64 | 0 | 0.0 | 0.0 | 0.00 | 0.18 | 0.00 | 55 | 1012.8 |
| 20260508153802 | 64 | 0 | 0.0 | 0.0 | 0.00 | 0.18 | 0.00 | 53 | 1012.8 |
| 20260508153305 | 64 | 0 | 0.0 | 0.0 | 0.00 | 0.18 | 0.00 | 52 | 1012.8 |
| 20260508152801 | 63 | 0 | 0.0 | 0.0 | 0.00 | 0.18 | 0.00 | 61 | 1012.8 |
| 20260508152301 | 63 | 0 | 0.0 | 0.0 | 0.00 | 0.19 | 0.00 | 52 | 1013.0 |
| 20260508151801 | 63 | 0 | 0.0 | 0.0 | 0.00 | 0.19 | 0.00 | 49 | 1013.0 |
| 20260508151301 | 63 | 0 | 0.0 | 0.0 | 0.00 | 0.19 | 0.00 | 52 | 1013.0 |
| 20260508150801 | 62 | 0 | 0.0 | 0.0 | 0.00 | 0.19 | 0.00 | 62 | 1013.2 |
| 20260508150301 | 62 | 0 | 0.0 | 0.0 | 0.00 | 0.19 | 0.00 | 62 | 1013.2 |
| 20260508145802 | 61 | 0 | 0.0 | 0.0 | 0.00 | 0.19 | 0.00 | 59 | 1013.2 |
| 20260508145301 | 61 | 0 | 0.0 | 0.0 | 0.00 | 0.19 | 0.00 | 60 | 1013.1 |
| 20260508144802 | 60 | 0 | 0.0 | 0.0 | 0.00 | 0.19 | 0.00 | 62 | 1013.1 |
| 20260508144301 | 60 | 0 | 0.0 | 0.0 | 0.00 | 0.20 | 0.00 | 63 | 1013.1 |
| 20260508143801 | 60 | 0 | 0.0 | 0.0 | 0.00 | 0.20 | 0.00 | 66 | 1012.9 |
| 20260508142928 | 59 | 0 | 0.0 | 0.0 | 0.00 | 0.20 | 0.00 | 67 | 1012.9 |
| 20260508142429 | 58 | 0 | 0.0 | 0.0 | 0.00 | 0.20 | 0.00 | 72 | 1012.7 |
| 20260508141929 | 58 | 0 | 0.0 | 0.0 | 0.00 | 0.20 | 0.00 | 72 | 1012.7 |
| 20260508141430 | 57 | 0 | 0.0 | 0.0 | 0.00 | 0.20 | 0.00 | 73 | 1012.7 |
| 20260508140929 | 56 | 0 | 0.0 | 0.0 | 0.00 | 0.20 | 0.00 | 69 | 1012.8 |
| 20260508140430 | 56 | 0 | 0.0 | 0.0 | 0.00 | 0.20 | 0.00 | 76 | 1012.8 |
| 20260508135933 | 55 | 0 | 0.0 | 0.0 | 0.00 | 0.20 | 0.00 | 76 | 1012.8 |
| 20260508135428 | 55 | 0 | 0.0 | 0.0 | 0.00 | 0.20 | 0.00 | 77 | 1012.7 |
| 20260508134929 | 54 | 0 | 0.0 | 0.0 | 0.00 | 0.21 | 0.00 | 79 | 1012.7 |
| 20260508134429 | 54 | 0 | 0.0 | 1.0 | 0.00 | 0.21 | 0.00 | 78 | 1012.7 |
| 20260508133937 | 54 | 0 | 0.0 | 1.0 | 0.00 | 0.21 | 0.00 | 78 | 1012.7 |
| 20260508133429 | 53 | 0 | 0.0 | 0.0 | 0.00 | 0.22 | 0.00 | 80 | 1012.7 |
| 20260508132929 | 53 | 0 | 0.0 | 0.0 | 0.00 | 0.22 | 0.00 | 79 | 1012.7 |
| 20260508132428 | 53 | 0 | 0.0 | 0.0 | 0.00 | 0.22 | 0.00 | 81 | 1012.6 |
| 20260508131944 | 53 | 0 | 0.0 | 0.0 | 0.00 | 0.22 | 0.00 | 81 | 1012.6 |
| 20260508131429 | 52 | 0 | 0.0 | 0.0 | 0.00 | 0.22 | 0.00 | 80 | 1012.6 |
| 20260508130928 | 52 | 0 | 0.0 | 0.0 | 0.00 | 0.23 | 0.00 | 80 | 1012.5 |
| 20260508130429 | 52 | 0 | 0.0 | 0.0 | 0.00 | 0.23 | 0.00 | 80 | 1012.5 |
| 20260508125933 | 52 | 0 | 0.0 | 0.0 | 0.00 | 0.23 | 0.00 | 81 | 1012.5 |
| 20260508125428 | 51 | 0 | 0.0 | 0.0 | 0.00 | 0.23 | 0.00 | 79 | 1012.2 |
| 20260508124933 | 51 | 0 | 0.0 | 0.0 | 0.00 | 0.23 | 0.00 | 80 | 1012.2 |
| 20260508124429 | 51 | 0 | 0.0 | 0.0 | 0.00 | 0.24 | 0.00 | 79 | 1012.2 |
| 20260508123928 | 51 | 0 | 0.0 | 0.0 | 0.00 | 0.24 | 0.00 | 79 | 1012.2 |
| 20260508123429 | 51 | 0 | 0.0 | 0.0 | 0.00 | 0.25 | 0.00 | 78 | 1012.2 |
| 20260508122929 | 50 | 0 | 0.0 | 0.0 | 0.00 | 0.26 | 0.00 | 77 | 1012.2 |
| 20260508122428 | 50 | 0 | 0.0 | 0.0 | 0.00 | 0.27 | 0.00 | 78 | 1012.1 |
| 20260508121928 | 50 | 0 | 0.0 | 0.0 | 0.00 | 0.28 | 0.00 | 79 | 1012.1 |
| 20260508121430 | 50 | 0 | 0.0 | 0.0 | 0.00 | 0.29 | 0.00 | 79 | 1012.1 |
| 20260508120928 | 50 | 0 | 0.0 | 0.0 | 0.00 | 0.29 | 0.00 | 79 | 1011.9 |
| 20260508120618 | 50 | 0 | 0.0 | 0.0 | 0.00 | 0.29 | 0.00 | 78 | 1011.9 |
| 20260508120504 | 50 | 0 | 0.0 | 0.0 | 0.00 | 0.29 | 0.00 | 78 | 1011.9 |
| 20260508120432 | 50 | 0 | 0.0 | 0.0 | 0.00 | 0.29 | 0.00 | 78 | 1011.9 |
| 20260508115929 | 50 | 0 | 0.0 | 0.0 | 0.00 | 0.29 | 0.00 | 78 | 1011.9 |
| 20260508115428 | 50 | 0 | 0.0 | 0.0 | 0.00 | 0.29 | 0.00 | 77 | 1011.6 |
| 20260508114928 | 50 | 0 | 0.0 | 0.0 | 0.00 | 0.29 | 0.00 | 77 | 1011.6 |
| 20260508114436 | 49 | 0 | 0.0 | 0.0 | 0.00 | 0.30 | 0.00 | 78 | 1011.6 |
| 20260508113928 | 49 | 0 | 0.0 | 0.0 | 0.00 | 0.30 | 0.00 | 79 | 1011.5 |
| 20260508113559 | 49 | 0 | 0.0 | 0.0 | 0.00 | 0.30 | 0.00 | 80 | 1011.5 |
| 20260508113428 | 49 | 0 | 0.0 | 0.0 | 0.00 | 0.30 | 0.00 | 80 | 1011.5 |
| 20260508112929 | 49 | 0 | 0.0 | 0.0 | 0.00 | 0.30 | 0.00 | 81 | 1011.5 |
| 20260508112429 | 49 | 0 | 0.0 | 0.0 | 0.00 | 0.30 | 0.00 | 81 | 1011.3 |
| 20260508111928 | 49 | 0 | 0.0 | 0.0 | 0.00 | 0.30 | 0.00 | 81 | 1011.3 |
| 20260508111429 | 49 | 0 | 0.0 | 0.0 | 0.00 | 0.30 | 0.00 | 82 | 1011.3 |
| 20260508110929 | 48 | 0 | 0.0 | 0.0 | 0.00 | 0.30 | 0.00 | 82 | 1011.0 |
| 20260508110428 | 48 | 0 | 0.0 | 0.0 | 0.00 | 0.30 | 0.00 | 83 | 1011.0 |
| 20260508105929 | 48 | 0 | 0.0 | 0.0 | 0.00 | 0.30 | 0.00 | 83 | 1011.0 |
| 20260508105429 | 48 | 0 | 0.0 | 0.0 | 0.00 | 0.30 | 0.00 | 84 | 1010.5 |
| 20260508104933 | 48 | 0 | 0.0 | 0.0 | 0.00 | 0.30 | 0.00 | 84 | 1010.5 |
| 20260508104430 | 48 | 0 | 0.0 | 0.0 | 0.00 | 0.31 | 0.00 | 84 | 1010.5 |
| 20260508103929 | 49 | 0 | 0.0 | 0.0 | 0.00 | 0.31 | 0.00 | 84 | 1010.4 |
| 20260508103626 | 49 | 0 | 0.0 | 0.0 | 0.00 | 0.31 | 0.00 | 83 | 1010.4 |
| 20260508103428 | 49 | 0 | 0.0 | 0.0 | 0.00 | 0.31 | 0.00 | 83 | 1010.4 |
| 20260508102928 | 49 | 0 | 0.0 | 0.0 | 0.00 | 0.31 | 0.00 | 83 | 1010.4 |
| 20260508102429 | 49 | 0 | 0.0 | 0.0 | 0.00 | 0.31 | 0.00 | 82 | 1010.2 |
| 20260508101928 | 49 | 0 | 0.0 | 0.0 | 0.00 | 0.31 | 0.00 | 81 | 1010.2 |
| 20260508101428 | 50 | 0 | 0.0 | 0.0 | 0.00 | 0.31 | 0.00 | 80 | 1010.2 |
| 20260508100939 | 50 | 0 | 0.0 | 0.0 | 0.00 | 0.31 | 0.00 | 80 | 1010.0 |
| 20260508100438 | 50 | 0 | 0.0 | 0.0 | 0.00 | 0.31 | 0.00 | 80 | 1010.0 |
| 20260508095928 | 50 | 0 | 0.0 | 0.0 | 0.00 | 0.31 | 0.00 | 79 | 1010.0 |
| 20260508095430 | 50 | 0 | 0.0 | 0.0 | 0.00 | 0.31 | 0.00 | 79 | 1009.9 |
| 20260508094929 | 51 | 0 | 0.0 | 0.0 | 0.00 | 0.31 | 0.00 | 78 | 1009.9 |
| 20260508094428 | 50 | 0 | 0.0 | 0.0 | 0.00 | 0.31 | 0.00 | 78 | 1009.9 |
| 20260508093937 | 51 | 0 | 0.0 | 0.0 | 0.00 | 0.31 | 0.00 | 78 | 1009.9 |
| 20260508093429 | 50 | 0 | 0.0 | 0.0 | 0.00 | 0.31 | 0.00 | 78 | 1009.9 |
| 20260508092928 | 50 | 0 | 0.0 | 0.0 | 0.00 | 0.31 | 0.00 | 79 | 1009.9 |
| 20260508092428 | 51 | 0 | 0.0 | 0.0 | 0.00 | 0.31 | 0.00 | 80 | 1009.7 |
| 20260508091929 | 51 | 0 | 0.0 | 0.0 | 0.00 | 0.31 | 0.00 | 79 | 1009.7 |
| 20260508091429 | 51 | 0 | 0.0 | 0.0 | 0.00 | 0.32 | 0.00 | 80 | 1009.7 |
| 20260508090928 | 51 | 0 | 0.0 | 0.0 | 0.00 | 0.32 | 0.00 | 80 | 1009.6 |
| 20260508090429 | 51 | 0 | 0.0 | 0.0 | 0.00 | 0.32 | 0.00 | 80 | 1009.6 |
| 20260508085928 | 51 | 0 | 0.0 | 0.0 | 0.00 | 0.32 | 0.00 | 81 | 1009.6 |
| 20260508085428 | 51 | 0 | 0.0 | 0.0 | 0.00 | 0.32 | 0.00 | 81 | 1009.7 |
| 20260508084929 | 51 | 0 | 0.0 | 0.0 | 0.00 | 0.32 | 0.00 | 82 | 1009.7 |
| 20260508084428 | 51 | 0 | 0.0 | 0.0 | 0.00 | 0.32 | 0.00 | 82 | 1009.7 |
| 20260508083929 | 51 | 0 | 0.0 | 0.0 | 0.00 | 0.32 | 0.00 | 82 | 1009.6 |
| 20260508083428 | 51 | 0 | 0.0 | 3.0 | 0.00 | 0.32 | 0.00 | 82 | 1009.6 |
| 20260508082929 | 51 | 0 | 0.0 | 3.0 | 0.00 | 0.32 | 0.00 | 82 | 1009.6 |
| 20260508082428 | 51 | 0 | 0.0 | 1.0 | 0.00 | 0.32 | 0.00 | 83 | 1009.3 |
| 20260508081928 | 51 | 0 | 0.0 | 1.0 | 0.00 | 0.32 | 0.00 | 83 | 1009.3 |
| 20260508081429 | 51 | 0 | 0.0 | 0.0 | 0.00 | 0.32 | 0.00 | 83 | 1009.3 |
| 20260508080928 | 51 | 0 | 0.0 | 0.0 | 0.00 | 0.32 | 0.00 | 83 | 1008.9 |
| 20260508080428 | 51 | 0 | 0.0 | 0.0 | 0.00 | 0.32 | 0.00 | 84 | 1008.9 |
| 20260508075929 | 52 | 0 | 0.0 | 0.0 | 0.00 | 0.32 | 0.00 | 84 | 1008.9 |
| 20260508075428 | 52 | 0 | 0.0 | 0.0 | 0.00 | 0.32 | 0.00 | 84 | 1009.2 |
| 20260508074928 | 52 | 0 | 0.0 | 1.0 | 0.00 | 0.32 | 0.00 | 84 | 1009.2 |
| 20260508074428 | 52 | 0 | 0.0 | 1.0 | 0.00 | 0.32 | 0.00 | 83 | 1009.2 |
| 20260508073929 | 52 | 0 | 0.0 | 0.0 | 0.00 | 0.32 | 0.00 | 83 | 1009.0 |
| 20260508073431 | 52 | 0 | 0.0 | 0.0 | 0.00 | 0.32 | 0.00 | 83 | 1009.0 |
| 20260508072928 | 53 | 0 | 0.0 | 0.0 | 0.00 | 0.32 | 0.00 | 83 | 1009.0 |
| 20260508072429 | 53 | 0 | 0.0 | 0.0 | 0.00 | 0.32 | 0.00 | 83 | 1008.7 |
| 20260508071928 | 53 | 0 | 0.0 | 0.0 | 0.00 | 0.32 | 0.00 | 83 | 1008.7 |
| 20260508071432 | 53 | 0 | 0.0 | 0.0 | 0.00 | 0.32 | 0.00 | 83 | 1008.7 |
| 20260508070929 | 53 | 0 | 0.0 | 0.0 | 0.00 | 0.32 | 0.00 | 83 | 1008.8 |
| 20260508070428 | 54 | 0 | 0.0 | 0.0 | 0.00 | 0.32 | 0.00 | 82 | 1008.8 |
| 20260508065928 | 54 | 0 | 0.0 | 0.0 | 0.00 | 0.32 | 0.00 | 82 | 1008.8 |
| 20260508065428 | 54 | 0 | 0.0 | 0.0 | 0.00 | 0.32 | 0.00 | 81 | 1008.7 |
| 20260508064929 | 54 | 0 | 0.0 | 0.0 | 0.00 | 0.32 | 0.00 | 82 | 1008.7 |
| 20260508064428 | 54 | 0 | 0.0 | 0.0 | 0.00 | 0.32 | 0.00 | 82 | 1008.7 |
| 20260508063928 | 54 | 0 | 0.0 | 0.0 | 0.00 | 0.32 | 0.00 | 82 | 1008.7 |
| 20260508063429 | 54 | 0 | 0.0 | 0.0 | 0.00 | 0.32 | 0.00 | 83 | 1008.7 |
| 20260508062928 | 54 | 0 | 0.0 | 0.0 | 0.00 | 0.32 | 0.00 | 81 | 1008.7 |
| 20260508062428 | 54 | 0 | 0.0 | 0.0 | 0.00 | 0.32 | 0.00 | 80 | 1008.8 |
| 20260508061929 | 54 | 0 | 0.0 | 0.0 | 0.00 | 0.32 | 0.00 | 80 | 1008.8 |
| 20260508061428 | 54 | 0 | 0.0 | 0.0 | 0.00 | 0.33 | 0.00 | 80 | 1008.8 |
| 20260508060929 | 53 | 0 | 0.0 | 0.0 | 0.00 | 0.33 | 0.00 | 81 | 1008.7 |
| 20260508060428 | 53 | 0 | 0.0 | 0.0 | 0.00 | 0.33 | 0.00 | 82 | 1008.7 |
| 20260508055928 | 53 | 0 | 0.0 | 0.0 | 0.00 | 0.34 | 0.00 | 83 | 1008.7 |
| 20260508055428 | 53 | 0 | 0.0 | 0.0 | 0.00 | 0.34 | 0.00 | 85 | 1008.7 |
| 20260508054928 | 53 | 0 | 0.0 | 0.0 | 0.00 | 0.34 | 0.00 | 86 | 1008.7 |
| 20260508054429 | 53 | 0 | 0.0 | 0.0 | 0.00 | 0.34 | 0.00 | 86 | 1008.7 |
| 20260508053928 | 53 | 0 | 0.0 | 0.0 | 0.00 | 0.34 | 0.00 | 88 | 1008.6 |
| 20260508053428 | 53 | 0 | 0.0 | 0.0 | 0.00 | 0.34 | 0.00 | 88 | 1008.6 |
| 20260508052928 | 53 | 0 | 0.0 | 0.0 | 0.00 | 0.34 | 0.00 | 90 | 1008.6 |
| 20260508052428 | 53 | 0 | 0.0 | 0.0 | 0.00 | 0.34 | 0.00 | 91 | 1009.5 |
| 20260508051928 | 53 | 0 | 0.0 | 0.0 | 0.00 | 0.34 | 0.00 | 92 | 1009.5 |
| 20260508051428 | 53 | 0 | 0.0 | 0.0 | 0.00 | 0.34 | 0.00 | 94 | 1009.5 |
| 20260508050928 | 54 | 0 | 0.0 | 0.0 | 0.00 | 0.34 | 0.34 | 94 | 1009.5 |
| 20260508050428 | 54 | 0 | 0.0 | 0.0 | 0.00 | 0.34 | 0.34 | 95 | 1009.5 |
| 20260508045928 | 54 | 0 | 0.0 | 0.0 | 0.00 | 0.34 | 0.34 | 96 | 1009.5 |
| 20260508045429 | 55 | 0 | 0.0 | 0.0 | 0.00 | 0.34 | 0.34 | 97 | 1009.2 |
| 20260508044930 | 55 | 0 | 0.0 | 0.0 | 0.00 | 0.34 | 0.34 | 97 | 1009.2 |
| 20260508043928 | 54 | 0 | 0.0 | 0.0 | 0.00 | 0.34 | 0.34 | 97 | 1009.2 |
| 20260508043428 | 54 | 0 | 0.0 | 0.0 | 0.00 | 0.34 | 0.34 | 97 | 1009.2 |
| 20260508042928 | 54 | 0 | 0.0 | 0.0 | 0.00 | 0.34 | 0.34 | 96 | 1009.2 |
| 20260508042215 | 54 | 0 | 0.0 | 0.0 | 0.00 | 0.35 | 0.34 | 96 | 1009.3 |
| 20260508041714 | 54 | 0 | 0.0 | 0.0 | 0.00 | 0.35 | 0.34 | 97 | 1009.3 |
| 20260508041215 | 53 | 0 | 0.0 | 0.0 | 0.00 | 0.35 | 0.34 | 97 | 1009.3 |
| 20260508040712 | 53 | 0 | 0.0 | 0.0 | 0.00 | 0.35 | 0.34 | 97 | 1009.0 |
| 20260508040222 | 53 | 0 | 0.0 | 0.0 | 0.00 | 0.35 | 0.34 | 97 | 1009.0 |
| 20260508035711 | 53 | 0 | 0.0 | 0.0 | 0.00 | 0.35 | 0.34 | 97 | 1009.0 |
| 20260508035222 | 54 | 0 | 0.0 | 0.0 | 0.00 | 0.35 | 0.34 | 97 | 1009.0 |
| 20260508034720 | 54 | 0 | 0.0 | 0.0 | 0.00 | 0.35 | 0.34 | 97 | 1009.0 |
| 20260508034215 | 54 | 0 | 0.0 | 0.0 | 0.00 | 0.35 | 0.34 | 97 | 1009.0 |
| 20260508033711 | 54 | 0 | 0.0 | 0.0 | 0.00 | 0.35 | 0.34 | 97 | 1009.0 |
| 20260508033127 | 54 | 0 | 0.0 | 0.0 | 0.00 | 0.35 | 0.34 | 97 | 1009.0 |
| 20260508032617 | 55 | 0 | 0.0 | 0.0 | 0.00 | 0.35 | 0.34 | 98 | 1009.0 |
| 20260508032129 | 55 | 0 | 0.0 | 0.0 | 0.00 | 0.36 | 0.34 | 98 | 1009.0 |
| 20260508031625 | 55 | 0 | 0.0 | 0.0 | 0.00 | 0.36 | 0.34 | 98 | 1009.0 |
| 20260508031117 | 55 | 0 | 0.0 | 0.0 | 0.00 | 0.37 | 0.34 | 98 | 1009.0 |
| 20260508030624 | 55 | 0 | 0.0 | 0.0 | 0.00 | 0.39 | 0.34 | 98 | 1008.9 |
| 20260508030117 | 55 | 0 | 0.0 | 0.0 | 0.00 | 0.40 | 0.34 | 98 | 1008.9 |
| 20260508025617 | 55 | 0 | 0.0 | 0.0 | 0.00 | 0.41 | 0.34 | 98 | 1008.9 |
| 20260508025118 | 55 | 0 | 0.0 | 0.0 | 0.00 | 0.41 | 0.34 | 98 | 1008.6 |
| 20260508024617 | 55 | 0 | 0.0 | 0.0 | 0.00 | 0.42 | 0.34 | 98 | 1008.6 |
| 20260508023752 | 55 | 0 | 0.0 | 0.0 | 0.00 | 0.44 | 0.34 | 98 | 1008.6 |
| 20260508023257 | 55 | 0 | 0.0 | 0.0 | 0.00 | 0.45 | 0.34 | 98 | 1008.6 |
| 20260508022753 | 55 | 0 | 0.0 | 0.0 | 0.00 | 0.47 | 0.34 | 98 | 1008.6 |
| 20260508022256 | 55 | 0 | 0.0 | 0.0 | 0.00 | 0.48 | 0.34 | 98 | 1008.4 |
| 20260508021753 | 55 | 0 | 0.0 | 0.0 | 0.00 | 0.48 | 0.34 | 98 | 1008.4 |
| 20260508021253 | 55 | 0 | 0.0 | 0.0 | 0.00 | 0.48 | 0.34 | 98 | 1008.4 |
| 20260508020846 | 55 | 0 | 0.0 | 0.0 | 0.00 | 0.50 | 0.34 | 98 | 1008.1 |
| 20260508020752 | 55 | 0 | 0.0 | 0.0 | 0.00 | 0.50 | 0.34 | 98 | 1008.1 |
| 20260508020257 | 55 | 0 | 0.0 | 0.0 | 0.00 | 0.52 | 0.34 | 98 | 1008.1 |
| 20260508015753 | 55 | 0 | 0.0 | 0.0 | 0.00 | 0.53 | 0.34 | 98 | 1008.1 |
| 20260508015255 | 55 | 0 | 0.0 | 0.0 | 0.00 | 0.54 | 0.34 | 98 | 1007.9 |
| 20260508014752 | 55 | 0 | 0.0 | 0.0 | 0.00 | 0.54 | 0.34 | 98 | 1007.9 |
| 20260508014257 | 55 | 0 | 0.0 | 0.0 | 0.00 | 0.55 | 0.34 | 98 | 1007.9 |
| 20260508013752 | 55 | 0 | 0.0 | 0.0 | 0.00 | 0.55 | 0.34 | 98 | 1007.6 |
| 20260508013258 | 55 | 0 | 0.0 | 0.0 | 0.00 | 0.55 | 0.34 | 98 | 1007.6 |
| 20260508012753 | 55 | 0 | 0.0 | 0.0 | 0.00 | 0.55 | 0.34 | 98 | 1007.6 |
| 20260508012256 | 55 | 0 | 0.0 | 0.0 | 0.00 | 0.55 | 0.34 | 98 | 1007.3 |
| 20260508011511 | 55 | 0 | 0.0 | 0.0 | 0.00 | 0.56 | 0.34 | 98 | 1007.3 |
| 20260508011010 | 55 | 0 | 0.0 | 0.0 | 0.00 | 0.56 | 0.34 | 98 | 1007.3 |
| 20260508010511 | 55 | 0 | 0.0 | 0.0 | 0.00 | 0.57 | 0.34 | 98 | 1006.8 |
| 20260508010010 | 55 | 0 | 0.0 | 0.0 | 0.00 | 0.57 | 0.34 | 97 | 1006.8 |
| 20260508005632 | 55 | 0 | 0.0 | 0.0 | 0.00 | 0.57 | 0.34 | 97 | 1006.8 |
| 20260508005017 | 55 | 0 | 0.0 | 0.0 | 0.00 | 0.57 | 0.34 | 98 | 1006.6 |
| 20260508004514 | 55 | 0 | 0.0 | 0.0 | 0.00 | 0.57 | 0.34 | 97 | 1006.6 |
| 20260508004010 | 55 | 0 | 0.0 | 0.0 | 0.00 | 0.57 | 0.34 | 98 | 1006.6 |
| 20260508003533 | 55 | 0 | 0.0 | 0.0 | 0.00 | 0.57 | 0.34 | 97 | 1006.3 |
| 20260508003010 | 55 | 0 | 0.0 | 0.0 | 0.00 | 0.57 | 0.34 | 97 | 1006.3 |
| 20260508002513 | 56 | 0 | 0.0 | 0.0 | 0.00 | 0.57 | 0.34 | 97 | 1006.3 |
| 20260508002010 | 56 | 0 | 0.0 | 1.0 | 0.00 | 0.57 | 0.34 | 97 | 1006.5 |
| 20260508001512 | 56 | 0 | 0.0 | 1.0 | 0.00 | 0.57 | 0.34 | 97 | 1006.5 |
| 20260508001010 | 56 | 0 | 0.0 | 0.0 | 0.00 | 0.57 | 0.34 | 97 | 1006.5 |
| 20260508000513 | 56 | 0 | 0.0 | 0.0 | 0.00 | 0.57 | 0.34 | 97 | 1006.2 |